BREEZE-M DEB (TANK), 42936

Orbit data source: Space-Track

BREEZE-M DEB (TANK), 42936 is space debris in HEO originally from a launch on Mon, 11 Sep 2017 UTC launched from the Tyuratam Missile And Space Complex (TTMTR). Debris objects in space refer to the collection of defunct objects orbiting the Earth. Examples of debris include non-operational satellites, rocket bodies, and fragments generated from explosions, collisions, or faulty payload assembly.

Loading next visibility...
Identifier
42936, 2017-053C
Orbit
HEO
Country
Flag of CISCIS
Related business
Manufacturer
Khrunichev
Mission
Spacecraft
Bus & Motor
BRIZ TANK, Unknown motor
Mass
~1,000 kg wet, 1,000 kg dry
Launch date (UTC)
2017-09-11 (8 years ago)
Launch vehicle
Unknown
Launch site
Tyuratam Missile And Space Complex (TTMTR)
Object type
Payload
Rocket body
Debris
Shape & HBR
Torus, 2.0 m
Radar Cross Section
8.218 m², Large (>1 m²)

Expand to show TLE details & history
Last TLE update: 1 day ago

TLE from 1 day ago
0 BREEZE-M DEB (TANK)
1 42936U 17053C   25259.92846035  .00003005  00000-0  74247-3 0  9995
2 42936  49.4629 127.8790 5101566 174.8350 193.7764  5.42561272155019
Epoch: 2025-09-16T22:16Z
TLE epoch observation values (Epoch: 2025-09-16T22:16:58.974Z)
Latitude
-0.00001°
Longitude
157.52653°
Altitude
14,192.935 km
Speed
3.102 km/s
True Right ascension
08h 31m 32s
True Declination
0° 00' 00"
Sunlit
Object was in daylight at epoch
Visualization orbit readout
Latitude
Unknown
Longitude
Unknown
Altitude
Unknown
Speed
Unknown
Apparent Right ascension
Unknown
Apparent Declination
Unknown
Sunlit
N/A
Visualization observer readout
Local Sidereal Time
15:03:07
Azimuth
Unknown
Elevation
Unknown
Doppler factor
Unknown
Orbital elements
Apogee altitude
14,282.626 km
Perigee altitude
323.511 km
Semi-major axis
13,681.206 km
Eccentricity
0.51016
Inclination
49.4629°
RAAN
127.879°
Arg. of periapsis
174.835°
True anomaly
185.21044°
Mean anomaly
193.7764°
Eccentric anomaly
189.13556°
Mean motion
1.3563 °/min
Orbital period
265.43 mins
BSTAR
0.00074247
Loading maneuver chart data...
Computing Atmospheric mass density...
Loading historical data...
Loading historical data...
Loading historical data...
Loading historical data...
Loading historical data...
Loading historical data...
Loading historical data...
Other satellites on launch #53 in the year 2017 (2017-09-11 UTC)

Documentation

Showing up to 5 results
|